Location: Brantley
(31.5822°N, 86.2569°W)
Time: 06:55:12
(UTC+00:00)

Vanguard 3 - Pass Details

Date: 19 February 2026
Orbit: 507 x 3205 km, 33.4° (Epoch: 9 March)

Event Time Altitude Azimuth Distance (km) Brightness Sun altitude
Rises 02:24:42 0° 283° (WNW) 3,367 11.3 -36.8°
Reaches altitude 10° 02:27:39 10° 278° (W) 2,147 10.1 -37.4°
Enters shadow 02:28:52 17° 273° (W) 1,653 9.3 -37.7°
Maximum altitude 02:32:06 48° 203° (SSW) 726 - -38.4°
Drops below altitude 10° 02:35:38 10° 128° (SE) 1,710 - -39.1°
Sets 02:37:45 0° 122° (ESE) 2,595 - -39.5°
